QPF
0.10 0.08 0.06 0.05 0.05 0.06 0.07 0.07 0.07 0.07 0.08 0.07 0.07 0.06 0.07 0.07 0.07 0.06 0.05 0.04 0.04 0.04 0.04 0.04 0.05 0.05 0.05 0.05 0.06 0.08 0.10 0.13 0.14 0.16 0.15 0.15 0.14 0.12 0.09 0.09 0.09 0.07 0.07
0.06 0.06 0.05 0.04 0.04 0.03 0.03 0.02 0.02 0.02 0.01 0.02 0.01 0.01 0.02 0.03 0.03 0.03 0.03 0.03 0.03 0.02 0.02 0.02 0.02 0.02 0.02 0.02 0.02 0.03 0.04 0.09 0.12 0.15 0.16 0.14 0.13 0.09 0.08 0.08 0.07 0.06 0.07
0.04 0.04 0.04 0.02 0.01 0.01 0.01 0.00 0.00 0.00 0.00 0.00 0.00 0.01 0.01 0.01 0.01 0.02 0.02 0.03 0.03 0.04 0.04 0.03 0.02 0.02 0.03 0.02 0.02 0.02 0.04 0.07 0.10 0.13 0.14 0.11 0.08 0.06 0.07 0.07 0.06 0.06 0.06
0.03 0.03 0.02 0.01 0.01 0.01 0.01 0.00 0.00 0.00 0.00 0.00 0.00 0.00 0.00 0.00 0.00 0.00 0.01 0.01 0.01 0.02 0.03 0.03 0.02 0.02 0.02 0.02 0.02 0.03 0.04 0.06 0.10 0.13 0.12 0.09 0.05 0.06 0.05 0.06 0.06 0.06 0.05
0.02 0.02 0.01 0.01 0.01 0.00 0.00 0.00 0.00 0.00 0.00 0.00 0.00 0.00 0.00 0.00 0.00 0.00 0.00 0.01 0.01 0.01 0.02 0.02 0.02 0.02 0.02 0.02 0.02 0.02 0.04 0.05 0.08 0.13 0.17 0.15 0.09 0.06 0.06 0.05 0.05 0.05 0.04
0.01 0.01 0.01 0.00 0.00 0.00 0.00 0.00 0.00 0.00 0.00 0.00 0.00 0.00 0.00 0.00 0.00 0.00 0.00 0.00 0.00 0.01 0.01 0.02 0.02 0.02 0.02 0.02 0.03 0.02 0.02 0.03 0.05 0.10 0.15 0.21 0.19 0.14 0.10 0.07 0.06 0.06 0.05
0.00 0.00 0.00 0.00 0.00 0.00 0.00 0.00 0.00 0.00 0.00 0.00 0.00 0.00 0.00 0.00 0.00 0.00 0.00 0.00 0.00 0.01 0.01 0.01 0.01 0.01 0.02 0.02 0.02 0.02 0.02 0.02 0.03 0.05 0.10 0.14 0.17 0.16 0.13 0.11 0.10 0.09 0.07
0.00 0.00 0.00 0.00 0.00 0.00 0.00 0.00 0.00 0.00 0.00 0.00 0.00 0.00 0.00 0.00 0.00 0.00 0.00 0.00 0.00 0.00 0.00 0.00 0.00 0.00 0.01 0.01 0.01 0.01 0.01 0.01 0.01 0.03 0.06 0.10 0.12 0.14 0.14 0.11 0.11 0.10 0.08
0.00 0.00 0.00 0.00 0.00 0.00 0.00 0.00 0.00 0.00 0.00 0.00 0.00 0.00 0.00 0.00 0.00 0.00 0.00 0.00 0.00 0.00 0.00 0.00 0.00 0.00 0.00 0.01 0.00 0.01 0.01 0.01 0.01 0.01 0.03 0.07 0.10 0.12 0.14 0.13 0.11 0.10 0.10
0.00 0.00 0.00 0.00 0.00 0.00 0.00 0.00 0.00 0.00 0.00 0.00 0.00 0.00 0.00 0.00 0.00 0.00 0.00 0.00 0.00 0.00 0.00 0.00 0.00 0.00 0.01 0.01 0.02 0.01 0.01 0.01 0.01 0.02 0.02 0.04 0.07 0.11 0.15 0.15 0.13 0.10 0.10
0.00 0.00 0.00 0.00 0.00 0.00 0.00 0.00 0.00 0.00 0.00 0.00 0.00 0.00 0.00 0.00 0.00 0.00 0.00 0.00 0.00 0.00 0.00 0.00 0.00 0.00 0.01 0.01 0.01 0.01 0.01 0.01 0.01 0.01 0.02 0.04 0.06 0.09 0.15 0.16 0.15 0.13 0.11
0.00 0.00 0.00 0.00 0.00 0.00 0.00 0.00 0.00 0.00 0.00 0.00 0.00 0.00 0.00 0.00 0.00 0.00 0.00 0.00 0.00 0.00 0.00 0.00 0.00 0.00 0.00 0.01 0.01 0.01 0.01 0.01 0.01 0.01 0.02 0.04 0.07 0.08 0.12 0.15 0.15 0.14 0.12
0.00 0.00 0.00 0.00 0.00 0.00 0.00 0.00 0.00 0.00 0.00 0.00 0.00 0.00 0.00 0.00 0.00 0.00 0.00 0.00 0.00 0.00 0.00 0.00 0.00 0.00 0.00 0.00 0.01 0.01 0.01 0.01 0.01 0.02 0.03 0.03 0.06 0.09 0.10 0.12 0.15 0.16 0.14
0.00 0.00 0.00 0.00 0.00 0.00 0.00 0.00 0.00 0.00 0.00 0.00 0.00 0.00 0.00 0.00 0.00 0.00 0.00 0.00 0.00 0.00 0.00 0.00 0.00 0.00 0.00 0.00 0.00 0.01 0.01 0.01 0.01 0.01 0.03 0.04 0.04 0.07 0.10 0.10 0.11 0.15 0.15
0.00 0.00 0.00 0.00 0.00 0.00 0.00 0.00 0.00 0.00 0.00 0.00 0.00 0.00 0.00 0.00 0.00 0.00 0.00 0.00 0.00 0.00 0.00 0.00 0.00 0.00 0.00 0.01 0.01 0.01 0.01 0.01 0.01 0.01 0.01 0.03 0.03 0.04 0.07 0.09 0.09 0.11 0.13
0.00 0.00 0.00 0.00 0.00 0.00 0.00 0.00 0.00 0.00 0.00 0.00 0.00 0.00 0.00 0.00 0.00 0.00 0.00 0.00 0.00 0.00 0.00 0.00 0.00 0.00 0.00 0.00 0.00 0.01 0.01 0.01 0.01 0.02 0.02 0.03 0.03 0.03 0.04 0.07 0.08 0.09 0.11
0.00 0.00 0.00 0.00 0.00 0.00 0.00 0.00 0.00 0.00 0.00 0.00 0.00 0.00 0.00 0.00 0.00 0.00 0.00 0.00 0.00 0.00 0.00 0.00 0.00 0.00 0.00 0.00 0.00 0.01 0.01 0.01 0.01 0.01 0.02 0.03 0.03 0.03 0.03 0.04 0.06 0.06 0.07
0.00 0.00 0.00 0.00 0.00 0.00 0.00 0.00 0.00 0.00 0.00 0.00 0.00 0.00 0.00 0.00 0.00 0.00 0.00 0.00 0.00 0.00 0.00 0.00 0.00 0.00 0.00 0.00 0.00 0.00 0.00 0.00 0.01 0.01 0.03 0.03 0.03 0.03 0.04 0.03 0.03 0.03 0.04
0.00 0.00 0.00 0.00 0.00 0.00 0.00 0.00 0.00 0.00 0.00 0.00 0.00 0.00 0.00 0.00 0.00 0.00 0.00 0.00 0.00 0.00 0.00 0.00 0.00 0.00 0.00 0.00 0.00 0.00 0.00 0.00 0.00 0.01 0.02 0.04 0.04 0.04 0.04 0.02 0.01 0.02 0.02
0.00 0.00 0.00 0.00 0.00 0.00 0.00 0.00 0.00 0.00 0.00 0.00 0.00 0.00 0.00 0.00 0.00 0.00 0.00 0.00 0.00 0.00 0.00 0.00 0.00 0.00 0.00 0.00 0.00 0.00 0.00 0.00 0.01 0.01 0.02 0.04 0.03 0.03 0.02 0.01 0.01 0.01 0.01
0.00 0.00 0.00 0.00 0.00 0.00 0.00 0.00 0.00 0.00 0.00 0.00 0.00 0.00 0.00 0.00 0.00 0.00 0.00 0.00 0.00 0.00 0.00 0.00 0.00 0.00 0.01 0.01 0.01 0.01 0.02 0.02 0.01 0.01 0.02 0.03 0.03 0.02 0.02 0.01 0.01 0.01 0.01
0.00 0.00 0.00 0.00 0.00 0.00 0.00 0.00 0.00 0.00 0.00 0.00 0.00 0.00 0.00 0.00 0.00 0.00 0.00 0.00 0.00 0.00 0.00 0.00 0.00 0.00 0.01 0.01 0.02 0.03 0.02 0.02 0.02 0.02 0.02 0.03 0.03 0.02 0.01 0.01 0.02 0.02 0.01
0.00 0.00 0.00 0.00 0.00 0.00 0.00 0.00 0.00 0.00 0.00 0.00 0.00 0.00 0.00 0.00 0.00 0.00 0.00 0.00 0.00 0.00 0.00 0.00 0.00 0.00 0.00 0.00 0.01 0.03 0.02 0.02 0.02 0.02 0.02 0.03 0.03 0.03 0.02 0.02 0.01 0.01 0.01
0.00 0.00 0.00 0.00 0.00 0.00 0.00 0.00 0.00 0.00 0.00 0.00 0.00 0.00 0.00 0.00 0.00 0.00 0.00 0.00 0.00 0.00 0.00 0.00 0.00 0.01 0.01 0.01 0.01 0.02 0.01 0.01 0.01 0.01 0.01 0.02 0.02 0.02 0.02 0.02 0.01 0.01 0.01
0.00 0.00 0.00 0.00 0.00 0.00 0.00 0.00 0.00 0.00 0.00 0.00 0.00 0.00 0.00 0.00 0.00 0.00 0.00 0.00 0.00 0.00 0.00 0.00 0.00 0.01 0.01 0.01 0.01 0.02 0.02 0.01 0.01 0.01 0.01 0.01 0.01 0.02 0.03 0.02 0.02 0.02 0.02
0.00 0.00 0.00 0.00 0.00 0.00 0.00 0.00 0.00 0.00 0.00 0.00 0.00 0.00 0.00 0.00 0.00 0.00 0.00 0.00 0.00 0.00 0.00 0.00 0.01 0.01 0.01 0.01 0.01 0.02 0.02 0.01 0.01 0.01 0.01 0.01 0.01 0.02 0.02 0.02 0.02 0.01 0.02
MSLP
1014.48 1014.57 1014.63 1014.62 1014.53 1014.37 1014.19 1014.02 1013.92 1013.90 1013.98 1014.12 1014.29 1014.43 1014.51 1014.51 1014.43 1014.30 1014.15 1014.03 1013.98 1014.00 1014.11 1014.28 1014.47 1014.66 1014.81 1014.90 1014.94 1014.92 1014.88 1014.81 1014.74 1014.66 1014.56 1014.42 1014.22 1013.96 1013.64 1013.28 1012.94 1012.65 1012.47
1014.73 1014.86 1014.94 1014.94 1014.82 1014.62 1014.39 1014.19 1014.06 1014.06 1014.16 1014.35 1014.56 1014.76 1014.87 1014.88 1014.78 1014.61 1014.41 1014.23 1014.12 1014.09 1014.16 1014.29 1014.47 1014.63 1014.76 1014.82 1014.83 1014.78 1014.71 1014.62 1014.54 1014.45 1014.35 1014.20 1013.99 1013.69 1013.30 1012.87 1012.42 1012.01 1011.71
1014.91 1015.09 1015.21 1015.21 1015.08 1014.86 1014.60 1014.37 1014.24 1014.24 1014.37 1014.59 1014.85 1015.08 1015.22 1015.23 1015.12 1014.91 1014.65 1014.41 1014.23 1014.14 1014.15 1014.23 1014.36 1014.48 1014.56 1014.58 1014.55 1014.47 1014.38 1014.30 1014.23 1014.16 1014.09 1013.96 1013.76 1013.44 1013.02 1012.51 1011.96 1011.44 1011.02
1015.05 1015.27 1015.42 1015.44 1015.32 1015.09 1014.82 1014.57 1014.43 1014.43 1014.57 1014.82 1015.10 1015.35 1015.50 1015.51 1015.38 1015.14 1014.84 1014.55 1014.31 1014.15 1014.09 1014.11 1014.17 1014.22 1014.24 1014.21 1014.14 1014.04 1013.94 1013.87 1013.83 1013.81 1013.78 1013.70 1013.52 1013.21 1012.76 1012.19 1011.55 1010.92 1010.38
1015.16 1015.42 1015.60 1015.65 1015.54 1015.32 1015.03 1014.78 1014.63 1014.62 1014.76 1015.00 1015.28 1015.53 1015.69 1015.69 1015.55 1015.29 1014.96 1014.63 1014.34 1014.12 1014.00 1013.95 1013.93 1013.91 1013.87 1013.78 1013.67 1013.54 1013.44 1013.39 1013.38 1013.41 1013.43 1013.40 1013.25 1012.95 1012.48 1011.87 1011.16 1010.43 1009.77
1015.26 1015.55 1015.77 1015.85 1015.76 1015.54 1015.25 1014.99 1014.82 1014.78 1014.89 1015.11 1015.38 1015.61 1015.75 1015.75 1015.61 1015.34 1015.00 1014.65 1014.33 1014.07 1013.89 1013.78 1013.69 1013.60 1013.49 1013.35 1013.19 1013.04 1012.94 1012.90 1012.92 1012.99 1013.05 1013.05 1012.93 1012.64 1012.15 1011.50 1010.73 1009.92 1009.17
1015.37 1015.70 1015.94 1016.04 1015.97 1015.76 1015.48 1015.20 1015.00 1014.93 1014.99 1015.17 1015.39 1015.59 1015.70 1015.69 1015.55 1015.28 1014.95 1014.60 1014.27 1014.00 1013.78 1013.62 1013.47 1013.32 1013.15 1012.96 1012.76 1012.59 1012.47 1012.43 1012.46 1012.55 1012.63 1012.64 1012.53 1012.24 1011.75 1011.07 1010.26 1009.40 1008.58
1015.52 1015.86 1016.12 1016.24 1016.19 1015.99 1015.71 1015.41 1015.18 1015.06 1015.07 1015.18 1015.34 1015.49 1015.57 1015.54 1015.39 1015.14 1014.83 1014.49 1014.17 1013.89 1013.66 1013.46 1013.28 1013.08 1012.86 1012.62 1012.39 1012.18 1012.04 1011.99 1012.01 1012.09 1012.16 1012.17 1012.05 1011.76 1011.25 1010.56 1009.74 1008.85 1008.00
1015.69 1016.04 1016.32 1016.45 1016.42 1016.23 1015.94 1015.62 1015.36 1015.19 1015.14 1015.18 1015.26 1015.35 1015.38 1015.33 1015.17 1014.93 1014.63 1014.31 1014.01 1013.74 1013.50 1013.29 1013.07 1012.84 1012.59 1012.31 1012.04 1011.81 1011.64 1011.56 1011.55 1011.59 1011.64 1011.63 1011.49 1011.19 1010.68 1010.00 1009.19 1008.32 1007.49
1015.89 1016.24 1016.51 1016.65 1016.62 1016.44 1016.16 1015.84 1015.55 1015.34 1015.22 1015.18 1015.20 1015.21 1015.18 1015.08 1014.90 1014.65 1014.36 1014.06 1013.77 1013.51 1013.27 1013.05 1012.82 1012.56 1012.28 1011.98 1011.69 1011.42 1011.22 1011.10 1011.05 1011.06 1011.06 1011.02 1010.86 1010.55 1010.06 1009.42 1008.65 1007.85 1007.07
1016.10 1016.43 1016.69 1016.83 1016.80 1016.63 1016.35 1016.03 1015.73 1015.49 1015.32 1015.21 1015.15 1015.08 1014.98 1014.83 1014.60 1014.33 1014.03 1013.72 1013.43 1013.17 1012.93 1012.70 1012.45 1012.19 1011.89 1011.57 1011.26 1010.97 1010.74 1010.58 1010.49 1010.45 1010.42 1010.35 1010.19 1009.89 1009.45 1008.87 1008.19 1007.48 1006.81
1016.30 1016.60 1016.84 1016.95 1016.92 1016.75 1016.49 1016.19 1015.89 1015.63 1015.42 1015.26 1015.12 1014.98 1014.80 1014.57 1014.29 1013.98 1013.64 1013.31 1013.00 1012.72 1012.47 1012.22 1011.96 1011.68 1011.37 1011.05 1010.72 1010.41 1010.16 1009.97 1009.85 1009.78 1009.73 1009.65 1009.50 1009.25 1008.87 1008.39 1007.84 1007.26 1006.72
1016.47 1016.73 1016.92 1017.01 1016.96 1016.80 1016.56 1016.28 1016.00 1015.73 1015.51 1015.30 1015.10 1014.89 1014.63 1014.33 1013.98 1013.60 1013.21 1012.84 1012.49 1012.18 1011.90 1011.63 1011.35 1011.05 1010.73 1010.40 1010.06 1009.74 1009.48 1009.27 1009.14 1009.05 1009.00 1008.93 1008.83 1008.64 1008.37 1008.02 1007.61 1007.18 1006.79
1016.60 1016.80 1016.93 1016.98 1016.91 1016.76 1016.54 1016.29 1016.03 1015.78 1015.55 1015.32 1015.07 1014.79 1014.46 1014.08 1013.66 1013.21 1012.76 1012.34 1011.95 1011.59 1011.27 1010.96 1010.66 1010.34 1010.01 1009.66 1009.31 1008.99 1008.72 1008.51 1008.38 1008.30 1008.27 1008.24 1008.20 1008.11 1007.96 1007.75 1007.50 1007.24 1007.00
1016.66 1016.79 1016.87 1016.86 1016.78 1016.63 1016.43 1016.21 1015.98 1015.76 1015.53 1015.28 1015.00 1014.67 1014.28 1013.83 1013.34 1012.84 1012.33 1011.85 1011.41 1011.01 1010.65 1010.30 1009.96 1009.62 1009.26 1008.90 1008.54 1008.21 1007.94 1007.74 1007.61 1007.56 1007.56 1007.60 1007.64 1007.65 1007.64 1007.58 1007.49 1007.38 1007.29
1016.66 1016.72 1016.73 1016.68 1016.57 1016.42 1016.25 1016.06 1015.87 1015.66 1015.44 1015.19 1014.88 1014.51 1014.08 1013.58 1013.05 1012.50 1011.95 1011.43 1010.95 1010.51 1010.11 1009.73 1009.35 1008.97 1008.58 1008.20 1007.83 1007.49 1007.22 1007.02 1006.91 1006.89 1006.93 1007.03 1007.16 1007.29 1007.40 1007.48 1007.54 1007.57 1007.61
1016.58 1016.58 1016.53 1016.44 1016.32 1016.18 1016.03 1015.87 1015.70 1015.52 1015.30 1015.04 1014.72 1014.32 1013.86 1013.34 1012.78 1012.21 1011.64 1011.10 1010.60 1010.14 1009.71 1009.29 1008.88 1008.47 1008.06 1007.64 1007.25 1006.90 1006.62 1006.43 1006.33 1006.33 1006.42 1006.58 1006.78 1007.00 1007.22 1007.43 1007.61 1007.76 1007.90
1016.45 1016.40 1016.32 1016.20 1016.08 1015.94 1015.80 1015.66 1015.51 1015.34 1015.13 1014.86 1014.52 1014.11 1013.63 1013.11 1012.54 1011.98 1011.42 1010.89 1010.39 1009.93 1009.48 1009.05 1008.62 1008.18 1007.74 1007.30 1006.88 1006.52 1006.22 1006.02 1005.93 1005.95 1006.06 1006.26 1006.52 1006.81 1007.11 1007.40 1007.67 1007.91 1008.12
1016.26 1016.20 1016.10 1015.98 1015.86 1015.74 1015.62 1015.49 1015.34 1015.17 1014.94 1014.65 1014.30 1013.88 1013.40 1012.88 1012.34 1011.80 1011.28 1010.78 1010.32 1009.87 1009.44 1009.01 1008.57 1008.11 1007.65 1007.19 1006.75 1006.37 1006.06 1005.85 1005.75 1005.77 1005.89 1006.10 1006.38 1006.71 1007.05 1007.40 1007.72 1008.01 1008.27
1016.05 1015.99 1015.90 1015.80 1015.70 1015.60 1015.49 1015.36 1015.21 1015.01 1014.76 1014.45 1014.08 1013.65 1013.17 1012.68 1012.17 1011.68 1011.20 1010.76 1010.34 1009.93 1009.53 1009.12 1008.68 1008.23 1007.76 1007.29 1006.84 1006.45 1006.13 1005.91 1005.79 1005.80 1005.90 1006.10 1006.38 1006.70 1007.05 1007.40 1007.74 1008.05 1008.33
1015.82 1015.78 1015.73 1015.67 1015.60 1015.51 1015.42 1015.29 1015.12 1014.89 1014.61 1014.26 1013.86 1013.42 1012.95 1012.48 1012.01 1011.57 1011.16 1010.78 1010.42 1010.07 1009.71 1009.33 1008.92 1008.48 1008.02 1007.56 1007.12 1006.73 1006.40 1006.17 1006.04 1006.01 1006.09 1006.25 1006.49 1006.77 1007.09 1007.41 1007.73 1008.04 1008.32
1015.59 1015.59 1015.58 1015.56 1015.53 1015.47 1015.38 1015.24 1015.05 1014.79 1014.46 1014.08 1013.65 1013.20 1012.73 1012.29 1011.86 1011.48 1011.13 1010.81 1010.52 1010.22 1009.91 1009.57 1009.20 1008.80 1008.37 1007.93 1007.51 1007.13 1006.82 1006.58 1006.43 1006.38 1006.41 1006.51 1006.68 1006.90 1007.15 1007.42 1007.69 1007.97 1008.23
1015.34 1015.39 1015.44 1015.47 1015.47 1015.44 1015.36 1015.20 1014.98 1014.68 1014.31 1013.89 1013.44 1012.98 1012.52 1012.10 1011.72 1011.38 1011.09 1010.83 1010.59 1010.35 1010.09 1009.79 1009.47 1009.10 1008.72 1008.32 1007.94 1007.59 1007.30 1007.07 1006.91 1006.82 1006.80 1006.84 1006.93 1007.06 1007.22 1007.41 1007.62 1007.84 1008.07
1015.10 1015.19 1015.28 1015.36 1015.40 1015.38 1015.30 1015.13 1014.88 1014.55 1014.15 1013.70 1013.23 1012.76 1012.32 1011.92 1011.57 1011.28 1011.04 1010.82 1010.63 1010.42 1010.20 1009.95 1009.66 1009.34 1009.00 1008.66 1008.33 1008.02 1007.76 1007.54 1007.37 1007.26 1007.19 1007.16 1007.16 1007.20 1007.26 1007.36 1007.49 1007.65 1007.84
1014.84 1014.98 1015.11 1015.21 1015.27 1015.26 1015.18 1015.00 1014.72 1014.37 1013.95 1013.49 1013.01 1012.55 1012.13 1011.75 1011.44 1011.18 1010.97 1010.79 1010.61 1010.43 1010.23 1010.01 1009.75 1009.47 1009.17 1008.88 1008.60 1008.34 1008.12 1007.92 1007.76 1007.63 1007.52 1007.42 1007.34 1007.29 1007.25 1007.25 1007.29 1007.39 1007.53
1014.58 1014.74 1014.89 1015.01 1015.08 1015.08 1014.98 1014.79 1014.50 1014.13 1013.71 1013.25 1012.79 1012.35 1011.95 1011.61 1011.32 1011.09 1010.90 1010.73 1010.56 1010.39 1010.19 1009.97 1009.72 1009.46 1009.20 1008.95 1008.72 1008.51 1008.32 1008.16 1008.01 1007.87 1007.72 1007.58 1007.43 1007.29 1007.17 1007.08 1007.04 1007.06 1007.15
Thickness
5716 5716 5716 5715 5714 5712 5710 5709 5708 5706 5705 5702 5699 5697 5696 5696 5696 5695 5694 5694 5694 5694 5694 5693 5693 5692 5692 5693 5694 5694 5695 5696 5697 5697 5698 5702 5706 5708 5710 5713 5714 5717 5719
5709 5710 5710 5709 5706 5704 5701 5700 5698 5697 5695 5693 5691 5689 5687 5686 5686 5685 5685 5685 5684 5685 5686 5685 5685 5684 5684 5685 5686 5686 5687 5688 5690 5690 5689 5691 5696 5703 5708 5709 5711 5714 5716
5702 5703 5702 5701 5699 5696 5695 5693 5691 5688 5687 5685 5682 5680 5677 5676 5675 5675 5675 5675 5675 5676 5676 5676 5676 5676 5676 5676 5677 5678 5678 5679 5682 5684 5683 5683 5686 5693 5700 5705 5708 5711 5712
5699 5698 5697 5695 5692 5690 5689 5685 5683 5680 5678 5676 5673 5670 5666 5664 5664 5664 5664 5665 5666 5666 5666 5667 5667 5667 5667 5668 5669 5670 5670 5671 5673 5676 5679 5681 5683 5683 5689 5697 5703 5706 5709
5697 5695 5692 5689 5687 5685 5682 5678 5675 5672 5670 5667 5665 5661 5658 5656 5655 5654 5654 5654 5655 5655 5656 5657 5657 5658 5658 5659 5660 5661 5662 5664 5666 5668 5670 5672 5675 5679 5681 5686 5693 5699 5705
5695 5691 5688 5685 5681 5678 5675 5672 5669 5666 5663 5660 5658 5654 5651 5649 5647 5645 5644 5644 5644 5645 5646 5647 5648 5648 5649 5650 5651 5652 5654 5656 5658 5660 5662 5664 5667 5671 5675 5679 5684 5690 5698
5689 5685 5682 5678 5675 5672 5668 5665 5661 5658 5656 5653 5650 5647 5644 5641 5639 5636 5634 5634 5633 5634 5635 5636 5637 5638 5639 5641 5642 5643 5645 5647 5649 5652 5655 5658 5662 5666 5669 5672 5677 5683 5689
5684 5680 5676 5672 5668 5666 5662 5658 5654 5651 5648 5645 5642 5639 5636 5633 5630 5628 5626 5624 5624 5624 5625 5625 5626 5627 5629 5630 5632 5633 5635 5638 5640 5644 5647 5650 5654 5659 5663 5667 5670 5674 5679
5680 5675 5671 5667 5663 5659 5655 5651 5647 5644 5640 5637 5634 5631 5628 5625 5622 5619 5617 5615 5614 5615 5615 5614 5615 5616 5617 5619 5620 5622 5625 5628 5631 5634 5637 5642 5647 5651 5656 5660 5664 5667 5670
5674 5670 5665 5661 5657 5653 5649 5645 5641 5636 5633 5629 5626 5624 5620 5617 5614 5611 5608 5606 5605 5604 5604 5604 5604 5604 5606 5607 5608 5610 5614 5617 5621 5624 5628 5632 5637 5642 5647 5652 5657 5662 5665
5670 5664 5660 5656 5652 5648 5643 5638 5634 5629 5626 5622 5618 5615 5612 5609 5606 5603 5600 5598 5596 5594 5593 5592 5592 5592 5593 5594 5596 5599 5602 5606 5610 5614 5618 5623 5628 5632 5637 5642 5648 5654 5659
5666 5661 5656 5651 5647 5642 5637 5632 5628 5623 5620 5616 5612 5609 5605 5602 5598 5595 5592 5589 5586 5584 5582 5581 5580 5580 5581 5582 5584 5586 5591 5594 5598 5603 5608 5613 5618 5623 5628 5633 5639 5645 5651
5664 5657 5651 5646 5641 5636 5631 5627 5622 5618 5615 5611 5607 5603 5599 5595 5591 5588 5584 5581 5578 5575 5573 5571 5569 5569 5570 5571 5573 5576 5579 5583 5587 5592 5597 5602 5607 5612 5618 5624 5629 5635 5642
5659 5653 5647 5642 5637 5632 5626 5622 5617 5613 5609 5605 5601 5596 5592 5588 5584 5581 5577 5574 5570 5567 5564 5562 5560 5559 5559 5560 5562 5565 5568 5572 5576 5581 5586 5591 5596 5602 5608 5614 5619 5625 5631
5657 5651 5644 5638 5633 5628 5622 5618 5613 5609 5604 5600 5596 5592 5587 5583 5579 5575 5571 5567 5564 5561 5557 5554 5552 5551 5551 5552 5553 5555 5558 5561 5565 5569 5574 5580 5586 5592 5598 5604 5609 5615 5620
5654 5649 5643 5636 5630 5625 5619 5614 5609 5605 5600 5595 5592 5588 5583 5578 5574 5570 5566 5562 5558 5555 5551 5548 5546 5545 5545 5546 5546 5546 5549 5551 5555 5559 5564 5570 5576 5582 5588 5594 5600 5605 5610
5652 5646 5640 5633 5627 5621 5615 5610 5605 5601 5596 5592 5588 5584 5579 5574 5570 5566 5561 5557 5553 5549 5546 5544 5541 5539 5539 5538 5538 5538 5540 5542 5545 5549 5554 5560 5567 5572 5578 5584 5589 5595 5601
5651 5645 5638 5631 5625 5619 5613 5607 5602 5597 5593 5589 5585 5580 5575 5571 5566 5561 5557 5553 5549 5545 5542 5540 5537 5535 5534 5533 5532 5532 5533 5535 5537 5541 5545 5550 5555 5561 5567 5572 5578 5584 5590
5651 5643 5636 5629 5622 5616 5610 5604 5599 5594 5590 5586 5582 5577 5572 5567 5562 5558 5554 5549 5545 5542 5539 5536 5534 5532 5531 5529 5528 5527 5527 5529 5531 5534 5538 5542 5546 5551 5556 5563 5568 5573 5579
5649 5642 5635 5628 5621 5615 5608 5601 5597 5592 5587 5583 5579 5574 5569 5564 5559 5555 5550 5546 5542 5539 5536 5534 5531 5529 5527 5526 5525 5524 5523 5524 5526 5528 5531 5535 5539 5542 5546 5552 5558 5563 5569
5649 5642 5633 5626 5619 5613 5606 5599 5594 5590 5586 5581 5577 5573 5568 5562 5558 5553 5548 5544 5540 5537 5535 5533 5530 5527 5525 5523 5521 5520 5519 5520 5521 5523 5525 5528 5532 5535 5539 5544 5550 5555 5560
5647 5640 5631 5624 5618 5611 5604 5598 5594 5590 5585 5580 5576 5572 5567 5562 5558 5552 5548 5543 5539 5536 5533 5531 5529 5526 5523 5520 5518 5517 5516 5517 5517 5519 5521 5523 5526 5529 5533 5537 5542 5546 5551
5645 5638 5630 5623 5617 5611 5603 5598 5594 5589 5584 5580 5576 5571 5567 5562 5557 5551 5547 5543 5539 5535 5532 5529 5527 5524 5521 5519 5517 5516 5515 5514 5514 5515 5517 5519 5522 5525 5528 5532 5536 5540 5545
5643 5636 5628 5621 5616 5610 5604 5598 5594 5588 5583 5579 5575 5571 5566 5562 5558 5553 5548 5543 5539 5535 5532 5529 5526 5523 5521 5518 5517 5515 5514 5513 5513 5513 5514 5516 5518 5521 5524 5528 5531 5535 5539
5641 5634 5627 5620 5615 5610 5604 5599 5594 5588 5583 5579 5575 5571 5566 5562 5558 5555 5550 5546 5542 5536 5532 5529 5525 5523 5522 5520 5516 5514 5514 5513 5512 5512 5513 5515 5516 5519 5522 5524 5527 5529 5532
5640 5633 5627 5620 5615 5609 5604 5600 5594 5588 5582 5578 5575 5570 5566 5563 5559 5555 5553 5550 5545 5541 5536 5531 5527 5525 5522 5520 5518 5516 5514 5513 5512 5512 5513 5515 5517 5519 5521 5523 5524 5526 5529